Location: Boissi�res
(45.2500°N, 2.3667°E)
Time: 15:11:52
(UTC+00:00)

ISS - Pass Details

Date: 24 September 2021
Orbit: 417 x 423 km, 51.6° (Epoch: 28 October)

Event Time Altitude Azimuth Distance (km) Brightness Sun altitude
Rises 18:52:09 0° 278° (W) 2,362 2.1 -12.7°
Reaches altitude 10° 18:54:26 10° 290° (WNW) 1,500 0.5 -13.1°
Maximum altitude 18:57:24 28° 352° (N) 819 -2.1 -13.6°
Enters shadow 18:59:48 14° 48° (NE) 1,307 -1.6 -14.1°
